Skip Page Navigation
NASA JPL Caltech
NASA Logo - Jet Propulsion Laboratory + View the NASA Portal
+ Center for Near-Earth Object Studies
JPL Home Earth Solar System Stars & Galaxies Technology
JPL Solar System Dynamics
BODIES ORBITS EPHEMERIDES TOOLS PHYSICAL DATA DISCOVERY FAQ SITE MAP
IMPORTANT: The SSD Announcement email list is now available. Major changes are coming in the near future, including possible hostname and/or URL changes. To be notified of such changes, subscribe to this email list.

Please visit this page for more details.


JPL Small-Body Database Browser
Search: [ help ]  
193353 (2000 UU32)
Classification: Main-belt Asteroid          SPK-ID: 2193353
Ephemeris | Orbit Diagram | Orbital Elements | Mission Design | Physical Parameters | Discovery Circumstances ]

[ show orbit diagram ]
Orbital Elements at Epoch 2458600.5 (2019-Apr-27.0) TDB
Reference: JPL 14 (heliocentric ecliptic J2000)
 Element Value Uncertainty (1-sigma)   Units 
e .1161205290756945 5.69e-08  
a 2.602968624826227 2.1441e-08 au
q 2.300710530943973 1.4713e-07 au
i 2.168238685786375 6.4675e-06 deg
node 117.8020792801341 0.00014821 deg
peri 350.2289172810808 0.00015058 deg
M 97.0117354042668 2.8029e-05 deg
tp 2458187.144615115570
(2018-Mar-09.64461512)
0.00011692 TDB
period 1533.916880656584
4.20
1.8952e-05
5.189e-08
d
yr
n .2346932904512427 2.8998e-09 deg/d
Q 2.905226718708482 2.3931e-08 au
  Orbit Determination Parameters
   # obs. used (total)      319  
   data-arc span      6766 days (18.52 yr)  
   first obs. used      2000-10-29  
   last obs. used      2019-05-09  
   planetary ephem.      DE431  
   SB-pert. ephem.      SB431-N16  
   condition code      0  
   norm. resid. RMS      .5352  
   source      ORB  
   producer      Otto Matic  
   solution date      2019-May-30 08:11:02  

Additional Information
 Earth MOID = 1.31773 au 
 Jupiter MOID = 2.19776 au 
 T_jup = 3.403 
[ show covariance matrix ]

Ephemeris | Orbit Diagram | Orbital Elements | Mission Design | Physical Parameters | Discovery Circumstances ]

Physical Parameter Table
Parameter Symbol Value Units Sigma Reference Notes
absolute magnitude H 16.1   n/a MPO436955  

193353 (2000 UU32)          Discovered 2000-Oct-29 by Spacewatch at Kitt Peak
Reference: 20081113/Numbers.arcLast Updated: 2008-11-17
Ephemeris | Orbit Diagram | Orbital Elements | Mission Design | Physical Parameters | Discovery Circumstances ]
ABOUT SSD CREDITS/AWARDS PRIVACY/COPYRIGHT GLOSSARY LINKS
FirstGov 2019-Oct-22 07:18 UT
(server date/time)  
NASA Home Page
Site Manager:   Ryan S. Park
Webmaster  Alan B. Chamberlin